Regional Weather Roundup
Issued by NWS Little Rock, AR

Home | Current Version | Previous Version | Text Only | Print | Product List | Glossary On
Versions: 1 2 3 4 5 6 7 8 9 10 11 12 13 14 15 16 17 18 19 20 21 22 23 24 25 26 27 28 29 30 31
000
ASUS44 KLZK 141705
RWRLZK

WEATHER ROUNDUP FOR ARKANSAS
NATIONAL WEATHER SERVICE LITTLE ROCK AR
1100 AM CST THU DEC 14 2017

NOTE: "FAIR" INDICATES FEW OR NO CLOUDS BELOW 12,000 FEET WITH NO
SIGNIFICANT WEATHER AND/OR OBSTRUCTIONS TO VISIBILITY.

ARZ001-003-010-029-141800-
NORTHWEST ARKANSAS

CITY           SKY/WX    TMP DP  RH WIND       PRES   REMARKS
FAYETTEVILLE   CLOUDY    41  27  57 N5        30.11R
FORT SMITH     SUNNY     50  29  44 N8        30.11R
HARRISON       CLOUDY    41  25  53 N9        30.07F
BENTONVILLE    PTSUNNY   40  24  53 N15       30.12R
ROGERS           N/A     39  24  55 N9        30.11R
SILOAM SPGS    CLOUDY    41  25  53 NE10      30.12R
SPRINGDALE     MOSUNNY   39  25  56 NE9       30.11R
$$

ARZ004-005-016-141800-
NORTH CENTRAL ARKANSAS

CITY           SKY/WX    TMP DP  RH WIND       PRES   REMARKS
BATESVILLE     CLOUDY    43  25  49 VRB5      30.10S
FLIPPIN        CLOUDY    41  25  53 VRB5      30.10F
MTN HOME       CLOUDY    40  26  57 N6        30.08S
$$

ARZ040-041-141800-
WEST CENTRAL ARKANSAS

CITY           SKY/WX    TMP DP  RH WIND       PRES   REMARKS
MENA           SUNNY     54  32  43 NE5       30.07S
MOUNT IDA      SUNNY     54  31  41 CALM      30.03F
$$

ARZ009-017-025-026-028-141800-
NORTHEAST ARKANSAS

CITY           SKY/WX    TMP DP  RH WIND       PRES   REMARKS
CORNING        CLOUDY    41  25  52 NE6G12    30.09S
JONESBORO      CLOUDY    42  30  62 E7        30.09S
NEWPORT        CLOUDY    45  28  51 NE9       30.09F
WALNUT RIDGE   CLOUDY    42  24  49 NW9       30.09S
BLYTHEVILLE    CLOUDY    45  28  51 N10       30.08S
NW BLYTHEVILLE CLOUDY    43  27  52 N10       30.08S
$$

ARZ022-023-033-042-044-141800-
CENTRAL ARKANSAS

CITY           SKY/WX    TMP DP  RH WIND       PRES   REMARKS
LITTLE ROCK    MOSUNNY   51  30  44 N8        30.07F
N LITTLE ROCK    N/A     49  31  50 NE7       30.09S
JACKSONVILLE   SUNNY     50  30  46 N8        30.06S
SEARCY         MOSUNNY   49  31  49 NE7       30.08S
HOT SPRINGS    SUNNY     55  30  38 N5        30.05F
RUSSELLVILLE   SUNNY     50  28  42 N9        30.07F
CLINTON        FAIR      45  27  49 N10       30.10S
$$

ARZ036-141800-
EAST ARKANSAS

CITY           SKY/WX    TMP DP  RH WIND       PRES   REMARKS
WEST MEMPHIS   SUNNY     46  30  53 N10       30.06S
$$

ARZ050-053-066-070-073-141800-
SOUTHWEST ARKANSAS

CITY           SKY/WX    TMP DP  RH WIND       PRES   REMARKS
ARKADELPHIA    FAIR      54  32  43 NE9       30.06F
CAMDEN         SUNNY     57  28  33 VRB6G14   30.05R
TEXARKANA      SUNNY     54  29  38 NE9       30.04S
EL DORADO      SUNNY     54  33  45 NE10      30.03S
DE QUEEN       SUNNY     58  32  37 N8        30.05R
$$

ARZ056-057-069-141800-
SOUTHEAST ARKANSAS

CITY           SKY/WX    TMP DP  RH WIND       PRES   REMARKS
PINE BLUFF     SUNNY     51  31  46 N14       30.06F
STUTTGART      SUNNY     49  30  48 NE10      30.06F
MONTICELLO     SUNNY     55  31  39 NE13      30.04R

$$






USA.gov is the U.S. government's official web portal to all federal, state and local government web resources and services.